Location: Pamplona-Iru�ea
(42.8170°N, 1.6330°W)
Time: 12:33:29
(UTC+02:00)

ISS - Visible Passes

Search period start: 25 May 2019 00:00
Search period end: 04 June 2019 00:00
Orbit: 408 x 418 km, 51.6° (Epoch: 25 May)

Date Brightness Start Highest point End Pass type
(mag) Time Alt. Az. Time Alt. Az. Time Alt. Az.
25 May -1.0 00:15:10 10° NW 00:17:38 19° N 00:20:07 10° NE visible
25 May -1.4 01:51:42 10° NW 01:53:08 22° NW 01:53:08 22° NW visible
25 May -1.0 23:25:32 10° NW 23:27:55 18° N 23:30:18 10° NE visible
26 May -2.0 01:02:17 10° NW 01:05:08 31° NNE 01:05:08 31° NNE visible
26 May -1.0 22:35:46 10° NW 22:38:10 18° N 22:40:35 10° NE visible
27 May -1.6 00:12:51 10° NW 00:15:40 24° NNE 00:17:09 18° NE visible
27 May -1.0 01:49:17 10° WNW 01:49:57 15° WNW 01:49:57 15° WNW visible
27 May -1.3 23:23:22 10° NW 23:25:57 20° N 23:28:32 10° ENE visible
28 May -2.3 00:59:48 10° NW 01:02:01 36° NW 01:02:01 36° NW visible
28 May -1.2 22:33:47 10° NW 22:36:12 18° N 22:38:37 10° NE visible
29 May -2.7 00:10:21 10° NW 00:13:31 39° NNE 00:14:05 36° NE visible
29 May -2.0 23:20:54 10° NW 23:23:52 28° NNE 23:26:10 14° ENE visible
30 May -1.8 00:57:24 10° WNW 00:58:59 25° WNW 00:58:59 25° WNW visible
30 May -1.6 22:31:25 10° NW 22:34:08 23° NNE 22:36:52 10° ENE visible
31 May -3.8 00:07:50 10° NW 00:11:05 82° NNW 00:11:05 82° NNW visible
31 May -3.2 23:18:18 10° NW 23:21:35 52° NNE 23:23:14 25° E visible
01 Jun -1.1 00:55:25 10° W 00:56:03 13° W 00:56:03 13° W visible
01 Jun -2.5 22:28:49 10° NW 22:31:55 35° NNE 22:35:02 10° E visible
02 Jun -2.8 00:05:30 10° WNW 00:08:13 35° WSW 00:08:13 35° WSW visible
02 Jun -3.7 23:15:47 10° WNW 23:19:06 66° SW 23:20:25 33° SE visible
03 Jun -3.7 22:26:11 10° NW 22:29:31 73° NNE 22:32:39 11° ESE visible
